Charlottesville, VA

10:25 PM EDT on April 28, 2017 (GMT -0400)
Charlottesville-Albemarle

Weather History for KCHO - November, 2013

Change the Weather History Date:

Friday, November 1, 2013

  Actual Average Record
Temperature  
Mean Temperature 66 °F 52 °F  
Max Temperature 77 °F 63 °F 85 °F (1950)
Min Temperature 55 °F 40 °F 26 °F (1925)
Degree Days  
Heating Degree Days 0 14  
Month to date heating degree days 0 14  
Since 1 July heating degree days 315 363  
Cooling Degree Days 1 0  
Month to date cooling degree days 1 0  
Year to date cooling degree days 1146 1034  
Growing Degree Days 18 (Base 50)    
Moisture  
Dew Point 57 °F    
Average Humidity 65    
Maximum Humidity 93    
Minimum Humidity 36    
Precipitation  
Precipitation 0.09 in 0.12 in 1.54 in (1951)
Month to date precipitation 0.09 0.12  
Year to date precipitation 37.78 35.85  
Sea Level Pressure  
Sea Level Pressure 29.67 in    
Wind  
Wind Speed 9 mph (SSW)    
Max Wind Speed 21 mph    
Max Gust Speed 29 mph    
Visibility 9 miles    
Events Rain    
T = Trace of Precipitation, MM = Missing Value Source: NWS Daily Summary

Daily Weather History Graph

Daily Weather History Graph

Search for Another Location

Airport or City:

Trip Planner

Search our weather history database for the weather conditions in past years. The results will help you decide how hot, cold, wet, or windy it might be!

Date:

Astronomy

Nov. 01, 2013 Rise Set
Actual Time 7:39 AM EDT 6:14 PM EDT
Civil Twilight 7:12 AM EDT 6:41 PM EDT
Nautical Twilight 6:41 AM EDT 7:12 PM EDT
Astronomical Twilight 6:10 AM EDT 7:43 PM EDT
Moon 5:31 AM EDT (11/1) 5:04 PM EDT (11/1)
Length of Visible Light 11h 28m
Length of Day
10h 34m
Waning Crescent, 4% of the Moon is Illuminated
Nov 1
Waning Crescent
Nov 3
New
Nov 10
First Quarter
Nov 17
Full
Nov 25
Last Quarter

Hourly Weather History & Observations

Time (EDT) Temp. Dew Point Humidity Pressure Visibility Wind Dir Wind Speed Gust Speed Precip Events Conditions
12:27 AM 64.4 °F 55.4 °F 73% 29.77 in 10.0 mi South 17.3 mph 23.0 mph N/A   Overcast
12:35 AM 64.4 °F 55.4 °F 73% 29.76 in 10.0 mi South 16.1 mph - N/A   Overcast
12:51 AM 64.4 °F 55.4 °F 73% 29.75 in 10.0 mi South 13.8 mph - N/A   Overcast
12:53 AM 64.9 °F 55.9 °F 73% 29.74 in 10.0 mi South 16.1 mph - N/A   Overcast
1:53 AM 66.9 °F 57.9 °F 73% 29.70 in 10.0 mi SSW 12.7 mph 18.4 mph N/A   Overcast
2:53 AM 66.9 °F 61.0 °F 81% 29.70 in 10.0 mi SSW 12.7 mph 23.0 mph 0.00 in   Overcast
3:32 AM 66.2 °F 60.8 °F 83% 29.67 in 10.0 mi South 17.3 mph - N/A   Mostly Cloudy
3:53 AM 66.9 °F 61.0 °F 81% 29.66 in 10.0 mi SSW 15.0 mph 20.7 mph N/A   Mostly Cloudy
4:18 AM 66.2 °F 60.8 °F 83% 29.67 in 10.0 mi SSW 11.5 mph 20.7 mph N/A   Overcast
4:48 AM 66.2 °F 60.8 °F 83% 29.65 in 10.0 mi South 18.4 mph 26.5 mph N/A   Overcast
4:53 AM 66.9 °F 61.0 °F 81% 29.63 in 10.0 mi South 15.0 mph 26.5 mph N/A   Overcast
5:34 AM 68.0 °F 60.8 °F 78% 29.64 in 10.0 mi SSW 12.7 mph - N/A   Overcast
5:53 AM 68.0 °F 61.0 °F 78% 29.62 in 10.0 mi South 15.0 mph 25.3 mph 0.00 in Rain Light Rain
6:53 AM 69.1 °F 60.1 °F 73% 29.62 in 10.0 mi SSW 16.1 mph 28.8 mph 0.00 in   Overcast
7:53 AM 69.1 °F 60.1 °F 73% 29.62 in 10.0 mi SSW 15.0 mph - N/A   Overcast
8:43 AM 62.6 °F 59.0 °F 88% 29.70 in 1.8 mi WNW 8.1 mph 25.3 mph 0.08 in Rain Heavy Rain
8:50 AM 62.6 °F 59.0 °F 88% 29.70 in 3.0 mi Variable 3.5 mph - 0.09 in Rain Light Rain
8:53 AM 63.0 °F 59.0 °F 87% 29.69 in 5.0 mi West 4.6 mph - 0.09 in Rain Light Rain
9:06 AM 64.4 °F 59.0 °F 83% 29.71 in 5.0 mi Variable 3.5 mph - 0.00 in Rain Light Rain
9:28 AM 62.6 °F 57.2 °F 82% 29.71 in 5.0 mi SSW 6.9 mph - 0.00 in   Haze
9:53 AM 64.0 °F 57.9 °F 80% 29.69 in 5.0 mi SSW 6.9 mph - 0.00 in   Haze
10:53 AM 66.0 °F 59.0 °F 78% 29.67 in 10.0 mi SSW 9.2 mph - N/A   Overcast
11:53 AM 71.1 °F 53.1 °F 53% 29.67 in 10.0 mi SW 8.1 mph - N/A   Overcast
12:53 PM 73.0 °F 52.0 °F 48% 29.67 in 10.0 mi SW 6.9 mph 23.0 mph N/A   Clear
1:53 PM 72.0 °F 50.0 °F 46% 29.63 in 10.0 mi SW 9.2 mph - N/A   Clear
2:53 PM 75.0 °F 48.0 °F 38% 29.61 in 10.0 mi SW 10.4 mph 19.6 mph N/A   Clear
3:53 PM 75.9 °F 46.9 °F 36% 29.61 in 10.0 mi Variable 4.6 mph - N/A   Clear
4:53 PM 73.9 °F 55.0 °F 52% 29.60 in 10.0 mi South 11.5 mph - N/A   Clear
5:53 PM 70.0 °F 55.9 °F 61% 29.61 in 10.0 mi South 6.9 mph - N/A   Clear
6:53 PM 66.0 °F 55.9 °F 70% 29.62 in 10.0 mi South 8.1 mph - N/A   Clear
7:53 PM 64.9 °F 57.9 °F 78% 29.65 in 10.0 mi SSE 8.1 mph - N/A   Clear
8:53 PM 63.0 °F 57.9 °F 84% 29.65 in 10.0 mi SW 5.8 mph - N/A   Clear
9:53 PM 61.0 °F 57.9 °F 90% 29.65 in 10.0 mi Calm Calm - N/A   Clear
10:53 PM 60.1 °F 57.9 °F 93% 29.65 in 10.0 mi Calm Calm - N/A   Clear
11:53 PM 57.0 °F 55.0 °F 93% 29.66 in 9.0 mi Calm Calm - N/A   Clear